Location: Newark
(49.8969°N, 3.3422°E)
Time: 07:26:27
(UTC+00:00)

deb Explorer IX - Pass Details

Date: 19 January 2020
Orbit: 549 x 1099 km, 38.8° (Epoch: 20 February)

Event Time Altitude Azimuth Distance (km) Brightness Sun altitude
Rises 01:32:17 0° 242° (WSW) 3,888 - -55.1°
Reaches altitude 10° 01:35:26 10° 232° (SW) 2,900 - -54.7°
Maximum altitude 01:41:28 31° 174° (S) 1,705 - -54.0°
Drops below altitude 10° 01:47:01 10° 115° (ESE) 2,649 - -53.4°
Sets 01:49:45 0° 105° (ESE) 3,505 - -53.1°
